Location: Asheville, NC
(35.6000°N, 82.5500°W)
Time: 00:31:13
(UTC-04:00)

DOVE 4 - Pass Details

Date: 17 March 2018
Orbit: 590 x 802 km, 97.7° (Epoch: 24 June)

Event Time Altitude Azimuth Distance (km) Brightness Sun altitude
Rises 06:20:45 0° 7° (N) 3,271 ? -16.5°
Reaches altitude 10° 06:23:09 10° 5° (N) 2,317 ? -16.0°
Maximum altitude 06:28:11 62° 285° (WNW) 836 ? -15.0°
Drops below altitude 10° 06:32:56 10° 206° (SSW) 2,180 ? -14.0°
Sets 06:35:08 0° 202° (SSW) 3,062 ? -13.6°
